Location: Taaricht
(32.5378°N, 5.4251°W)
Time: 19:41:42
(UTC+00:00)

MetOp-A - Pass Details

Date: 09 April 2020
Orbit: 819 x 821 km, 98.5° (Epoch: 28 May)

Event Time Altitude Azimuth Distance (km) Brightness Sun altitude
Exits shadow 20:54:53 50° 192° (SSW) 1,041 4.5 -26.0°
Maximum altitude 20:56:15 71° 258° (WSW) 865 4.3 -26.3°
Drops below altitude 10° 21:01:37 10° 343° (NNW) 2,421 7.2 -27.2°
Sets 21:03:59 0° 345° (NNW) 3,357 8.0 -27.7°
